917  
ASUS43 KGLD 131259  
RWRGLD  
 
GOODLAND FORECAST AREA HOURLY WEATHER ROUNDUP  
NATIONAL WEATHER SERVICE GOODLAND KS  
700 AM MDT TUE APR 13 2021  
   
..OFFICIAL OBSERVATIONS
 
 
 
CITY SKY/WX TMP DP RH WIND PRES REMARKS
 
GOODLAND KS CLOUDY 36 17 46 N6 30.28R  
HILL CITY KS NOT AVBL  
IMPERIAL NEB CLOUDY 35 17 47 NW16 30.27R  
MCCOOK NEB NOT AVBL  
AKRON CO CLOUDY 31 14 49 N9 30.25R  
BURLINGTON CO CLOUDY 36 17 46 NE8 30.27R  
LIMON CO CLOUDY 32 13 45 E8 30.23R  

 
   
..UNOFFICIAL OBSERVATIONS
 
 
 
CITY SKY/WX TMP DP RH WIND PRES REMARKS
 
COLBY KS CLOUDY 37 17 45 N10 30.29R  
NORTON KS CLOUDY 34 25 69 NW6 30.31S  
SHARON SPRINGS N/A 34 15 44 CALM N/A  

 
 
 
CLICK HERE TO GO TO PREVIOUS BULLETINS.

The Nexlab KS Page
The Nexlab CO Page
The Nexlab NE Page Main Text Page